Nelson, British Columbia

3:25 AM PDT on April 21, 2018 (GMT -0700)
Nelson

Weather History for CWNM - August, 2014

Change the Weather History Date:

Monday, August 11, 2014

  Actual Average (CYCG) Record (CYCG)
Temperature  
Mean Temperature 76 °F -  
Max Temperature 95 °F 84 °F 96 °F (1996)
Min Temperature 56 °F 54 °F 51 °F (1997)
Cooling Degree Days 10    
Growing Degree Days 26 (Base 50)    
Moisture  
Dew Point 51 °F    
Average Humidity 48    
Maximum Humidity 73    
Minimum Humidity 15    
Precipitation  
Precipitation 0.00 in - - ()
Sea Level Pressure  
Sea Level Pressure 30.01 in    
Wind  
Wind Speed 2 mph ()    
Max Wind Speed 6 mph    
Max Gust Speed -    
Averages and records for this station are not official NWS values.
T = Trace of Precipitation, MM = Missing Value Source: Averaged Metar Reports

Daily Weather History Graph

Daily Weather History Graph

Search for Another Location

Airport or City:

Astronomy

Aug. 11, 2014 Rise Set
Actual Time 5:34 AM PDT 8:13 PM PDT
Civil Twilight 4:58 AM PDT 8:49 PM PDT
Nautical Twilight 4:12 AM PDT 9:34 PM PDT
Astronomical Twilight 3:17 AM PDT 10:29 PM PDT
Moon 8:29 PM PDT (8/11) 6:56 AM PDT (8/11)
Length of Visible Light 15h 50m
Length of Day
14h 38m
Full, 98% of the Moon is Illuminated
Aug 11
Full
Aug 17
Last Quarter
Aug 25
New
Sep 2
First Quarter
Sep 8
Full

Hourly Weather History & Observations

Time (PDT) Temp. Heat Index Dew Point Humidity Pressure Visibility Wind Dir Wind Speed Gust Speed Precip Events Conditions
12:00 AM 63.7 °F - 53.6 °F 70% 30.09 in - WSW 1.2 mph - N/A   Unknown
1:00 AM 62.8 °F - 49.1 °F 61% 30.09 in - SSW 2.3 mph - N/A   Unknown
2:00 AM 61.5 °F - 52.2 °F 71% 30.08 in - WSW 1.2 mph - N/A   Unknown
3:00 AM 60.3 °F - 49.3 °F 67% 30.09 in - SW 1.2 mph - N/A   Unknown
4:00 AM 58.8 °F - 48.9 °F 70% 30.09 in - SSW 2.3 mph - N/A   Unknown
5:00 AM 58 °F - 48 °F 61% 30.10 in - SSW 1.2 mph - -  
5:00 AM 57.7 °F - 48.2 °F 70% 30.10 in - SSW 1.2 mph - N/A   Unknown
6:00 AM 57.6 °F - 47.8 °F 70% 30.11 in - Calm Calm - N/A   Unknown
7:00 AM 60.4 °F - 51.4 °F 72% 30.11 in - NE 1.2 mph - N/A   Unknown
8:00 AM 65.3 °F - 53.4 °F 65% 30.12 in - WNW 1.2 mph - N/A   Unknown
11:00 AM 81 °F - 47 °F 20% 30.06 in - NE 5.8 mph - -  
11:00 AM 80.8 °F - 46.6 °F 30% 30.06 in - NE 5.8 mph - N/A   Unknown
12:00 PM 85.1 °F - 46.4 °F 26% 30.03 in - NE 4.6 mph - N/A   Unknown
1:00 PM 90.1 °F - 45.5 °F 21% 30.00 in - NNE 5.8 mph - N/A   Unknown
2:00 PM 91.2 °F - 44.4 °F 20% 29.97 in - NE 4.6 mph - N/A   Unknown
3:00 PM 90.1 °F - 46.0 °F 22% 29.94 in - NE 5.8 mph - N/A   Unknown
5:00 PM 94 °F - 52 °F 15% 29.90 in - NNE 4.6 mph - -  
5:00 PM 94.3 °F - 52.3 °F 24% 29.90 in - NNE 4.6 mph - N/A   Unknown
6:00 PM 90.1 °F - 52.5 °F 28% 29.89 in - NE 3.5 mph - N/A   Unknown
7:00 PM 86.0 °F 84.5 °F 55.0 °F 35% 29.89 in - SW 1.2 mph - N/A   Unknown
8:00 PM 75.2 °F - 56.8 °F 53% 29.91 in - SW 1.2 mph - N/A   Unknown
9:00 PM 72.5 °F - 52.7 °F 50% 29.91 in - North 1.2 mph - N/A   Unknown
11:00 PM 67 °F - 58 °F 65% 29.94 in - WSW 2.3 mph - -  
11:00 PM 66.9 °F - 57.9 °F 73% 29.94 in - WSW 2.3 mph - N/A   Unknown